| time (UTC) | temp C | wind direction | speed KPH | gust KPH | rain 1hr cm | rain 24hr cm | rain mn cm | humidity % | barometer mb |
| 20260503200655 | 22 | 192 | 9.7 | 20.9 | 0.00 | 0.03 | 0.03 | 44 | 1017.6 |
| 20260503195654 | 21 | 181 | 3.2 | 20.9 | 0.00 | 0.03 | 0.03 | 45 | 1017.9 |
| 20260503194653 | 22 | 211 | 6.4 | 19.3 | 0.00 | 0.03 | 0.03 | 44 | 1017.9 |
| 20260503193652 | 22 | 229 | 11.3 | 20.9 | 0.00 | 0.03 | 0.03 | 44 | 1018.3 |
| 20260503192619 | 22 | 240 | 6.4 | 14.5 | 0.00 | 0.03 | 0.03 | 44 | 1018.6 |
| 20260503191618 | 22 | 269 | 11.3 | 14.5 | 0.00 | 0.03 | 0.03 | 45 | 1019.0 |
| 20260503190546 | 22 | 40 | 3.2 | 12.9 | 0.00 | 0.03 | 0.03 | 46 | 1019.0 |
| 20260503185544 | 20 | 336 | 4.8 | 17.7 | 0.00 | 0.03 | 0.03 | 50 | 1019.3 |
| 20260503184511 | 21 | 245 | 9.7 | 19.3 | 0.00 | 0.03 | 0.03 | 47 | 1019.3 |
| 20260503183510 | 21 | 0 | 4.8 | 19.3 | 0.00 | 0.03 | 0.03 | 48 | 1019.3 |
| 20260503182508 | 22 | 314 | 8.0 | 14.5 | 0.00 | 0.03 | 0.03 | 47 | 1019.6 |
| 20260503181507 | 21 | 23 | 4.8 | 14.5 | 0.00 | 0.03 | 0.03 | 48 | 1019.6 |
| 20260503180505 | 21 | 293 | 4.8 | 12.9 | 0.00 | 0.03 | 0.03 | 49 | 1019.6 |
| 20260503175504 | 21 | 301 | 3.2 | 12.9 | 0.00 | 0.03 | 0.03 | 50 | 1019.6 |
| 20260503174502 | 21 | 141 | 3.2 | 12.9 | 0.00 | 0.03 | 0.03 | 51 | 1019.6 |
| 20260503173501 | 20 | 31 | 6.4 | 12.9 | 0.00 | 0.05 | 0.03 | 52 | 1020.0 |
| 20260503172459 | 20 | 288 | 6.4 | 11.3 | 0.00 | 0.05 | 0.03 | 51 | 1020.0 |
| 20260503171459 | 20 | 338 | 3.2 | 12.9 | 0.00 | 0.13 | 0.03 | 49 | 1020.0 |
| 20260503170457 | 20 | 13 | 3.2 | 12.9 | 0.00 | 0.18 | 0.03 | 50 | 1020.0 |
| 20260503150309 | 17 | 88 | 4.8 | 17.7 | 0.00 | 0.41 | 0.03 | 58 | 1021.0 |
| 20260503140229 | 16 | 26 | 6.4 | 14.5 | 0.00 | 0.61 | 0.03 | 62 | 1020.7 |
| 20260503131221 | 14 | 2 | 3.2 | 12.9 | 0.00 | 0.71 | 0.03 | 86 | 1020.3 |
| 20260503130219 | 13 | 335 | 4.8 | 12.9 | 0.00 | 0.76 | 0.03 | 88 | 1020.3 |
| 20260503120212 | 10 | 327 | 3.2 | 8.0 | 0.00 | 1.09 | 0.03 | 95 | 1020.0 |
| 20260503080836 | 9 | 16 | 0.0 | 0.0 | 0.00 | 1.68 | 0.00 | 92 | 1017.6 |
| 20260503072759 | 10 | 152 | 0.0 | 1.6 | 0.00 | 1.80 | 0.00 | 91 | 1017.3 |
| 20260503071727 | 10 | 167 | 1.6 | 3.2 | 0.00 | 1.85 | 0.00 | 91 | 1016.9 |
| 20260503070726 | 10 | 183 | 1.6 | 3.2 | 0.00 | 1.88 | 0.00 | 91 | 1016.9 |
| 20260503054613 | 11 | 138 | 1.6 | 1.6 | 0.00 | 2.11 | 0.00 | 92 | 1016.9 |
| 20260503053612 | 11 | 135 | 0.0 | 3.2 | 0.00 | 2.11 | 0.00 | 91 | 1016.9 |
| 20260503052611 | 11 | 146 | 0.0 | 3.2 | 0.00 | 2.11 | 0.00 | 91 | 1016.9 |
| 20260503051609 | 11 | 160 | 1.6 | 3.2 | 0.00 | 2.11 | 0.00 | 91 | 1016.9 |
| 20260503050609 | 11 | 143 | 0.0 | 4.8 | 0.00 | 2.11 | 0.00 | 91 | 1016.9 |
| 20260503045607 | 11 | 140 | 1.6 | 3.2 | 0.00 | 2.11 | 0.00 | 91 | 1016.9 |
| 20260503044534 | 11 | 180 | 1.6 | 4.8 | 0.00 | 2.11 | 0.00 | 91 | 1016.6 |
| 20260503043532 | 11 | 221 | 3.2 | 4.8 | 0.00 | 2.11 | 0.00 | 91 | 1016.6 |
| 20260503042532 | 11 | 264 | 1.6 | 4.8 | 0.00 | 2.11 | 0.00 | 91 | 1016.6 |
| 20260503041531 | 11 | 293 | 1.6 | 6.4 | 0.00 | 2.11 | 0.00 | 91 | 1016.6 |
| 20260503040530 | 11 | 313 | 3.2 | 6.4 | 0.00 | 2.11 | 0.00 | 91 | 1016.6 |
| 20260503035528 | 11 | 309 | 3.2 | 4.8 | 0.00 | 2.11 | 2.11 | 91 | 1016.6 |
| 20260503034527 | 11 | 319 | 3.2 | 4.8 | 0.00 | 2.11 | 2.11 | 91 | 1016.3 |
| 20260503033526 | 11 | 301 | 1.6 | 4.8 | 0.00 | 2.11 | 2.11 | 91 | 1016.3 |
| 20260503032525 | 11 | 269 | 0.0 | 3.2 | 0.00 | 2.11 | 2.11 | 91 | 1015.9 |
| 20260503031524 | 11 | 283 | 1.6 | 3.2 | 0.00 | 2.11 | 2.11 | 91 | 1015.9 |
| 20260503030522 | 11 | 295 | 1.6 | 4.8 | 0.00 | 2.11 | 2.11 | 91 | 1015.9 |
| 20260503025521 | 11 | 281 | 1.6 | 4.8 | 0.00 | 2.11 | 2.11 | 90 | 1015.6 |
| 20260503024520 | 11 | 201 | 1.6 | 3.2 | 0.00 | 2.11 | 2.11 | 90 | 1015.6 |
| 20260503023518 | 11 | 199 | 1.6 | 3.2 | 0.00 | 2.11 | 2.11 | 90 | 1015.6 |
| 20260503022445 | 11 | 186 | 1.6 | 3.2 | 0.00 | 2.11 | 2.11 | 90 | 1015.6 |
| 20260503021444 | 11 | 191 | 1.6 | 3.2 | 0.00 | 2.11 | 2.11 | 89 | 1015.2 |
| 20260503020443 | 11 | 194 | 1.6 | 3.2 | 0.00 | 2.11 | 2.11 | 89 | 1015.2 |
| 20260503015441 | 11 | 194 | 1.6 | 3.2 | 0.00 | 2.11 | 2.11 | 89 | 1014.9 |
| 20260503014440 | 11 | 175 | 1.6 | 4.8 | 0.00 | 2.11 | 2.11 | 88 | 1014.9 |
| 20260503013438 | 11 | 187 | 1.6 | 4.8 | 0.00 | 2.11 | 2.11 | 88 | 1014.6 |
| 20260503012437 | 11 | 174 | 3.2 | 4.8 | 0.00 | 2.11 | 2.11 | 88 | 1014.6 |
| 20260503011437 | 12 | 184 | 0.0 | 3.2 | 0.00 | 2.11 | 2.11 | 88 | 1014.6 |
| 20260503010435 | 12 | 216 | 1.6 | 3.2 | 0.00 | 2.11 | 2.11 | 87 | 1014.6 |
| 20260503005434 | 12 | 298 | 1.6 | 3.2 | 0.00 | 2.11 | 2.11 | 86 | 1014.2 |
| 20260503004433 | 12 | 305 | 1.6 | 4.8 | 0.00 | 2.11 | 2.11 | 86 | 1014.2 |
| 20260503003431 | 12 | 304 | 3.2 | 6.4 | 0.00 | 2.11 | 2.11 | 85 | 1014.2 |
| 20260503002429 | 12 | 300 | 4.8 | 6.4 | 0.00 | 2.11 | 2.11 | 85 | 1013.9 |
| 20260503001429 | 13 | 344 | 3.2 | 8.0 | 0.00 | 2.11 | 2.11 | 84 | 1013.5 |
| 20260503000429 | 13 | 75 | 3.2 | 12.9 | 0.00 | 2.11 | 2.11 | 83 | 1013.2 |
| 20260502235425 | 13 | 58 | 6.4 | 12.9 | 0.00 | 2.11 | 2.11 | 83 | 1013.2 |
| 20260502234424 | 13 | 88 | 4.8 | 9.7 | 0.00 | 2.11 | 2.11 | 83 | 1012.9 |
| 20260502233422 | 13 | 62 | 3.2 | 9.7 | 0.00 | 2.11 | 2.11 | 84 | 1012.9 |
| 20260502232420 | 13 | 49 | 1.6 | 11.3 | 0.00 | 2.11 | 2.11 | 85 | 1013.2 |
| 20260502231348 | 13 | 34 | 3.2 | 11.3 | 0.00 | 2.11 | 2.11 | 84 | 1012.9 |
| 20260502230346 | 13 | 20 | 4.8 | 16.1 | 0.00 | 2.11 | 2.11 | 84 | 1012.9 |
| 20260502225345 | 13 | 43 | 4.8 | 16.1 | 0.00 | 2.11 | 2.11 | 84 | 1012.9 |
| 20260502224345 | 13 | 45 | 4.8 | 14.5 | 0.00 | 2.11 | 2.11 | 84 | 1012.9 |
| 20260502223344 | 13 | 54 | 4.8 | 16.1 | 0.00 | 2.11 | 2.11 | 84 | 1012.9 |
| 20260502222342 | 13 | 51 | 6.4 | 16.1 | 0.00 | 2.11 | 2.11 | 84 | 1012.5 |
| 20260502221310 | 13 | 51 | 4.8 | 14.5 | 0.00 | 2.11 | 2.11 | 85 | 1012.5 |
| 20260502220308 | 13 | 55 | 4.8 | 20.9 | 0.00 | 2.11 | 2.11 | 86 | 1012.9 |
| 20260502215235 | 13 | 19 | 6.4 | 20.9 | 0.00 | 2.11 | 2.11 | 86 | 1012.5 |
| 20260502214235 | 13 | 352 | 9.7 | 19.3 | 0.00 | 2.11 | 2.11 | 87 | 1012.5 |
| 20260502213233 | 13 | 326 | 8.0 | 17.7 | 0.00 | 2.11 | 2.11 | 87 | 1012.5 |
| 20260502212200 | 13 | 31 | 9.7 | 16.1 | 0.00 | 2.11 | 2.11 | 87 | 1012.2 |
| 20260502211159 | 13 | 34 | 3.2 | 20.9 | 0.00 | 2.11 | 2.11 | 88 | 1012.2 |
| 20260502210158 | 13 | 46 | 3.2 | 20.9 | 0.00 | 2.11 | 2.11 | 87 | 1012.2 |
| 20260502205157 | 13 | 30 | 6.4 | 16.1 | 0.00 | 2.11 | 2.11 | 89 | 1012.2 |
| 20260502204156 | 13 | 29 | 6.4 | 19.3 | 0.00 | 2.11 | 2.11 | 88 | 1012.2 |
| 20260502203155 | 13 | 15 | 8.0 | 19.3 | 0.00 | 2.11 | 2.11 | 88 | 1012.2 |
| 20260502202123 | 13 | 12 | 6.4 | 19.3 | 0.00 | 2.11 | 2.11 | 88 | 1012.2 |
| 20260502201122 | 13 | 38 | 6.4 | 22.5 | 0.00 | 2.11 | 2.11 | 88 | 1012.2 |